Regional Weather Roundup
Issued by NWS New Orleans/Baton Rouge, LA

Home | Current Version | Previous Version | Text Only | Print | Product List | Glossary On
Versions: 1 2 3 4 5 6 7 8 9 10 11 12 13 14 15 16 17 18 19 20 21 22 23 24 25 26 27
000
ASUS44 KLIX 200011
RWRLIX
NEW ORLEANS REGIONAL WEATHER ROUNDUP
NATIONAL WEATHER SERVICE NEW ORLEANS LA
600 PM CST SUN NOV 19 2017

NOTE: "FAIR" INDICATES FEW OR NO CLOUDS BELOW 12,000 FEET WITH NO
      SIGNIFICANT WEATHER AND/OR OBSTRUCTIONS TO VISIBILITY.
      SKY/WX - SKY CONDITION AND SIGNIFICANT WEATHER.
      TMP - AIR TEMPERATURE.     DP    - DEWPOINT TEMPERATURE.
      RH  - RELATIVE HUMIDITY.   PRES  - PRESSURE.
      HI  - HEAT INDEX.          WCI   - WIND CHILL INDEX.

*  THESE STATIONS ARE NOT NWS OR FAA STATIONS AND ARE NOT UNDER
   NWS QUALITY CONTROL.

LAZ038-040-048-061>063-065>067-069-200100-
SOUTHEAST LOUISIANA

CITY           SKY/WX    TMP DP  RH WIND       PRES   REMARKS
N.O. INTL ARPT PTCLDY    59  31  34 N10       30.17R
6HR MIN TEMP:  59; 6HR MAX TEMP:  64;

N.O. LAKEFRONT CLEAR     59  35  40 N18       30.17R
6HR MIN TEMP:  59; 6HR MAX TEMP:  64;

N.O. DOWNTOWN*   N/A     59  30  33 N8G18     30.17R
6HR MIN TEMP:  59; 6HR MAX TEMP:  62;

RESERVE*         N/A     56  31  39 N6        30.18R
6HR MIN TEMP:  56; 6HR MAX TEMP:  65;

SLIDELL        CLEAR     50  38  63 N3        30.16R
6HR MIN TEMP:  49; 6HR MAX TEMP:  63;

BATON ROUGE    CLEAR     53  28  38 NW5       30.20R
6HR MIN TEMP:  53; 6HR MAX TEMP:  63;

BOOTHVILLE     CLEAR     61  39  44 N9        30.14R
6HR MIN TEMP:  59; 6HR MAX TEMP:  63;

BELLE CHASSE   MOCLDY    55  36  48 N5        30.16R
6HR MIN TEMP:  55; 6HR MAX TEMP:  62;

BOGALUSA*      NOT AVBL
GALLIANO*      PTCLDY    51  36  55 N6        30.16R
6HR MIN TEMP:  51; 6HR MAX TEMP:  62;

NEW ROADS*       N/A     49  37  61 CALM      30.21R
6HR MIN TEMP:  49; 6HR MAX TEMP:  62;

GONZALES*        N/A     50  38  61 N3        30.19R
6HR MIN TEMP:  50; 6HR MAX TEMP:  62;

HAMMOND*       PTCLDY    50  34  53 CALM      30.19R
HOUMA*         NOT AVBL
PORT FOURCHON* NOT AVBL

$$

MSZ070-080>082-200100-
SOUTHERN MISSISSIPPI

CITY           SKY/WX    TMP DP  RH WIND       PRES   REMARKS
MCCOMB         CLEAR     48  32  53 N5        30.18R
6HR MIN TEMP:  48; 6HR MAX TEMP:  60;

GULFPORT       CLEAR     53  34  48 N7        30.15R
6HR MIN TEMP:  53; 6HR MAX TEMP:  63;

BILOXI         CLEAR     54  36  50 CALM      30.15R
6HR MIN TEMP:  54; 6HR MAX TEMP:  62;

PASCAGOULA     CLEAR     50  35  56 N5        30.15R
6HR MIN TEMP:  50; 6HR MAX TEMP:  63;

STENNIS ARPT*  CLEAR     48  37  66 N3        30.17R

$$

COASTAL OBSERVATIONS
LAKE AND NEARSHORE STATIONS

STATION/POSITION TIME  TEMP    WIND        PRES    WAVE
                       AIR SEA DIR/SP/G            HT/PER
                 (UTC) (F)     (DEG/KT/KT) (MB)    (FT/S)
PASCAGOULA       2342   55     360/  6/ 10 1020.3
WAVELAND YACHT   2342   57 65   10/ 11/ 13 1021.2
GRAND ISLE       2342   60 67   10/ 16/ 21 1020.8
SOUTHWEST PASS   2342   60 64   20/ 17/ 21 1020.8
NEW CANAL        2342   60 66   10/ 16/ 20 1021.3
SHELL BEACH      2342   60 68  360/ 21/ 24 1020.9

OFFSHORE STATIONS

STATION/POSITION TIME  TEMP    WIND        PRES    WAVE
                       AIR SEA DIR/SP/G            HT/PER
                 (UTC) (F)     (DEG/KT/KT) (MB)    (FT/S)
64 S DAUPHIN ISL 2350   63 78  360/ 17/ 23 1019.5    5/ 5

$$





USA.gov is the U.S. government's official web portal to all federal, state and local government web resources and services.